Location: Guayaquil
(2.1667°S, 79.9000°W)
Time: 15:06:35
(UTC-05:00)

Tiangong 2 - Visible Passes

Search period start: 19 November 2018 00:00
Search period end: 29 November 2018 00:00
Orbit: 382 x 393 km, 42.8° (Epoch: 19 November)

Date Brightness Start Highest point End Pass type
(mag) Time Alt. Az. Time Alt. Az. Time Alt. Az.
19 Nov 2.9 04:53:58 10° SSW 04:56:53 33° SE 04:59:48 10° ENE visible
20 Nov 4.3 03:58:17 13° SE 03:58:19 13° SE 03:59:59 10° ESE visible
20 Nov 2.3 05:32:21 10° WSW 05:34:59 24° NW 05:37:39 10° NNE visible
21 Nov 1.9 04:37:24 41° NNE 04:37:24 41° NNE 04:39:37 10° NE visible
